Find WHDW 05-01

NORAD ID: 64956 Int'l Des: 2025-159 Owner: ZXW Country: CN Constellation: xingwang operational
LEOCIRCULARPOLARONEWEB_TYPE

实时位置

正在加载3D地球...

关于 WHDW 05-01

正在加载描述...

即将过境

Passes for default location (London). Set your location on the main map for personalized predictions.

高度历史

Loading altitude history...

两行轨道根数

1 64956U 25159A 26105.17239366 .00000118 00000-0 24140-3 0 9997
2 64956 86.4912 303.7380 0001767 100.5020 259.6313 13.24421648 34781
Epoch: Apr 15, 2026 • Age: 7 hours

当前状态

高度 1194.3 km
速度 7.26 km/s
星下点 -66.69°S, 125.89°E
发射日期 Jul 27, 2025
运行时间 0.7 years
类型 other

技术详情

分类 Payload
质量 700.00 kg
干质量 700.00 kg
总质量 700.00 kg
长度 3.00 m
直径 1.00 m
跨度 10.00 m
形状 Box + 2 Pan
制造商 CAST
平台类型 Xingwang C
阶段状态 In Orbit
所有者/国家 ZXW/CN

Most Searched